Find Nimbus 5

NORAD ID: 6305 Int'l Des: 1972-097 Owner: GSFC Country: US operational
LEOCIRCULARRETROGRADESSO

リアルタイム位置

3D地球を読み込み中...

Nimbus 5について

説明を読み込み中...

次回通過

Passes for default location (London). Set your location on the main map for personalized predictions.

高度履歴

Loading altitude history...

軌道要素

1 06305U 72097A 26106.67417660 -.00000019 00000-0 42221-4 0 9997
2 06305 99.8136 7.0603 0007802 303.6180 110.0554 13.44253243616466
Epoch: Apr 16, 2026 • Age: 14 hours

現在のステータス

高度 1095.2 km
速度 7.31 km/s
衛星直下点 22.95°N, 63.27°E
タイプ other

Most Searched